Regional Weather Roundup
Issued by NWS

Home | Current Version | Previous Version | Graphics & Text | Print | Product List | Glossary Off
Versions: 1 2 3 4 5 6 7 8 9 10 11 12 13 14 15 16 17 18 19 20 21 22 23 24 25 26 27 28 29 30 31 32 33 34 35 36 37 38 39 40 41 42 43 44 45 46 47 48 49 50

000
ASUS43 KMKX 060211
RWRWI

WISCONSIN REGIONAL WEATHER ROUNDUP
NATIONAL WEATHER SERVICE MILWAUKEE/SULLIVAN WI
800 PM CST MON DEC 05 2016

NOTE: "FAIR" INDICATES FEW OR NO CLOUDS BELOW 12,000 FEET WITH NO
SIGNIFICANT WEATHER AND/OR OBSTRUCTIONS TO VISIBILITY.

WIZ001-002-006>008-014>016-023>028-060300-
NORTHWEST WISCONSIN

CITY           SKY/WX    TMP DP  RH WIND       PRES   REMARKS
SUPERIOR ARPT  CLOUDY    35  33  92 E6        29.71F WCI  30
ASHLAND        CLOUDY    35  33  92 MISG      29.75F
HAYWARD        CLOUDY    35  29  78 SE13G24   29.70F WCI  26
SIREN          CLOUDY    36  32  86 SE10      29.68F WCI  28
CUMBERLAND     CLOUDY    32  32 100 SE12G17   29.69S WCI  23
RICE LAKE      CLOUDY    34  32  91 SE14G21   29.72S WCI  25
CHETEK         CLOUDY    34  32  93 SE7       29.72F WCI  28
LADYSMITH      CLOUDY    36  31  85 S6        29.76R WCI  31
EAU CLAIRE     CLOUDY    36  30  79 S7        29.75R WCI  30
MENOMONIE      CLOUDY    35  32  87 E10       29.73F WCI  28
NEW RICHMOND   CLOUDY    36  31  85 S10       29.70S WCI  28
OSCEOLA        LGT RAIN  36  32  84 SE14      29.69F WCI  27
$$

WIZ003>005-009-010-017-018-060300-
NORTH CENTRAL WISCONSIN

CITY           SKY/WX    TMP DP  RH WIND       PRES   REMARKS
MANITOWISH WTR CLOUDY    34  33  98 SE8       29.77F WCI  27
ARBOR VITAE    CLOUDY    37  34  90 SE8       29.79F WCI  30
WOODRUFF       CLOUDY    37  34  90 SE8       29.79F WCI  30
RHINELANDER    CLOUDY    34  32  92 SE10      29.82F WCI  26
EAGLE RIVER    CLOUDY    33  32  99 E8        29.81F WCI  25
LAND O LAKES   CLOUDY    33  32  96 SE7       29.86F WCI  27
PHILLIPS       CLOUDY    33  31  92 SE9       29.75F WCI  25
TOMAHAWK       CLOUDY    32  30  92 SE3       29.82F
MEDFORD        CLOUDY    32  30  93 SE10      29.79F WCI  23
MERRILL        CLOUDY    32  32  99 SE5       29.84S FOG     WCI  28
$$

WIZ029-030-035-036-043>047-060300-
CENTRAL WISCONSIN

CITY           SKY/WX    TMP DP  RH WIND       PRES   REMARKS
WAUSAU         CLOUDY    32  30  92 SE5       29.83F WCI  27
MOSINEE        PTCLDY    32  32 100 SE8       29.85F FOG     WCI  25
MARSHFIELD     CLOUDY    32  30  92 SE12      29.81F WCI  23
STEVENS POINT  CLOUDY    31  31 100 SE6       29.86F FOG     WCI  25
WAUPACA        CLOUDY    34  32  92 SE7       29.90F FOG     WCI  28
WAUTOMA        CLOUDY    32  31  96 S9        29.91F WCI  24
WISC RAPIDS    CLOUDY    32  32 100 SE8       29.86F WCI  25
CAMP DOUGLAS   MOCLDY    34  30  86 SE10      29.85R WCI  26
$$

WIZ011>013-019>022-031-037>040-048>050-060300-
NORTHEAST WISCONSIN

CITY           SKY/WX    TMP DP  RH WIND       PRES   REMARKS
ANTIGO         CLOUDY    32  31  99 E7        29.84F WCI  25
SHAWANO        CLOUDY    35  32  90 SE3       29.91F FOG
OCONTO         CLOUDY    34  32  92 CALM      29.95F
STURGEON BAY   NOT AVBL
GREEN BAY      CLOUDY    35  34  96 SE5       29.92F WCI  31
MANITOWOC      CLOUDY    34  32  92 S5        29.95F FOG     WCI  30
APPLETON       CLOUDY    32  32 100 SE6       29.90F WCI  26
CLINTONVILLE   CLOUDY    32  32 100 SE7       29.91F FOG     WCI  26
OSHKOSH        CLOUDY    33  30  88 SE8       29.91F WCI  26
$$

WIZ032>034-041-042-053>061-060300-
SOUTHWEST WISCONSIN

CITY           SKY/WX    TMP DP  RH WIND       PRES   REMARKS
LA CROSSE      CLOUDY    38  31  76 SE15      29.80S WCI  29
SPARTA         CLOUDY    35  31  87 SE7       29.83S WCI  29
VIROQUA        CLOUDY    32  32  99 SE16      29.81F WCI  21
BOSCOBEL       CLOUDY    35  31  85 CALM      29.87S
PRAIRIE DU CHI CLOUDY    34  31  88 SE8       29.84F WCI  27
PLATTEVILLE    CLOUDY    32  32 100 SE12      29.87S WCI  23
$$

WIZ056-057-062-063-064-067-068-060300-
SOUTH CENTRAL WISCONSIN

CITY           SKY/WX    TMP DP  RH WIND       PRES   REMARKS
REEDSBURG      CLOUDY    32  32 100 SE5       29.87F WCI  27
BARABOO/DELLS  CLOUDY    32  31  95 SE8       29.88S FOG     WCI  25
LONE ROCK      CLOUDY    34  31  88 SE8       29.88F WCI  27
MINERAL POINT  CLOUDY    34  34 100 SE13      29.86F FOG     WCI  25
MADISON        CLOUDY    32  30  92 SE13      29.91F WCI  22
MIDDLETON      NOT AVBL
WATERTOWN      CLOUDY    31  31 100 SE9       29.93F FOG     WCI  23
MONROE         FOG       32  32 100 SE14      29.90S VSB 1/4 WCI  22
JANESVILLE     CLOUDY    32  32 100 SE12      29.92F FOG     WCI  23
$$

WIZ051-052-058>065-066-070>072-060300-
SOUTHEAST WISCONSIN

CITY           SKY/WX    TMP DP  RH WIND       PRES   REMARKS
MILWAUKEE      CLOUDY    34  32  92 S5        29.97F FOG     WCI  30
WAUKESHA       CLOUDY    30  28  93 SE9       29.96F FOG     WCI  22
MILWAUKEE/TIMM CLOUDY    32  28  86 S8        29.98S FOG     WCI  25
RACINE         CLOUDY    34  31  88 S3        29.97F FOG
BURLINGTON     CLOUDY    32  31  98 SE5       29.94F FOG     WCI  27
KENOSHA        CLOUDY    34  31  88 SE8       29.95F FOG     WCI  27
FOND DU LAC    CLOUDY    32  28  85 S7        29.92F WCI  26
SHEBOYGAN      CLOUDY    33  31  92 S6        29.95F FOG     WCI  28
WEST BEND      CLOUDY    32  32 100 S5        29.95F FOG     WCI  27
JUNEAU         CLOUDY    31  30  96 SE8       29.94F FOG     WCI  23
$$

LSZ147-162-060300-
LAKE SUPERIOR

STATION/POSITION TIME  TEMP    WIND        PRES    WAVE
                       AIR SEA DIR/SP/G            HT/PER
                 (UTC) (F)     (DEG/KT/KT) (MB)    (FT/S)
DEVILS ISLAND    0100   38     110/ 15/ 17 1010.3R
PORT WING        0140   36     260/  3/  5 1007.1S
SAXON HARBOR     0140   38     130/  2/  5 1007.8F
$$

LMZ867-665-643>646-060300-
LAKE MICHIGAN

STATION/POSITION TIME  TEMP    WIND        PRES    WAVE
                       AIR SEA DIR/SP/G            HT/PER
                 (UTC) (F)     (DEG/KT/KT) (MB)    (FT/S)
CHAMBERS ISLAND  0130   37     190/  5/ 11 1013.9S
NORTHPORT PIER   0140   35     220/  3/  8 1014.6R
SISTER BAY       0138   35     200/ 10/ 12   N/A
ALGOMA LAKESHORE 0106          230/ 10/ 12   N/A
KEWAUNEE LAKESHO 0142   34     240/  2/  5 1013.9F
SHEBOYGAN LAKESH 0100   35     210/  5/  6 1014.9F
PORT WASHINGTON  0140   36     180/  9/ 12 1015.6F
MILWAUKEE LAKESH 0150   34     190/  9/ 10   N/A
KENOSHA   LAKESH 0100   33     210/  6/  8 1015.6
$$

TC  - TEMPERATURE IN CELSIUS
VSB - VISIBILITY IN STATUTE MILES
WCI - WIND CHILL INDEX
HX  - HEAT INDEX





USA.gov is the U.S. government's official web portal to all federal, state and local government web resources and services.